Location: Casilda
(33.0440°S, 61.1680°W)
Time: 17:24:52
(UTC-03:00)

ISS - Pass Details

Date: 04 December 2021
Orbit: 417 x 423 km, 51.6° (Epoch: 28 November)

Event Time Altitude Azimuth Distance (km) Brightness Sun altitude
Exits shadow 02:14:31 12° 172° (S) 1,408 -0.3 -31.5°
Drops below altitude 10° 02:14:55 10° 167° (SSE) 1,522 -0.1 -31.5°
Sets 02:17:30 0° 147° (SSE) 2,392 1.2 -31.3°
